Weather History for St. James, MN

Change the Weather History Date:

Sunday, January 20, 2013

  Actual Average Record
Temperature  
Mean Temperature 8 °F -  
Max Temperature 14 °F 24 °F 49 °F (1964)
Min Temperature 1 °F 4 °F -24 °F (1985)
Degree Days  
Heating Degree Days 56    
Moisture  
Dew Point -3 °F    
Average Humidity 61    
Maximum Humidity 73    
Minimum Humidity 56    
Precipitation  
Precipitation 0.00 in - - ()
Sea Level Pressure  
Sea Level Pressure 30.34 in    
Wind  
Wind Speed 16 mph (WNW)    
Max Wind Speed 24 mph    
Max Gust Speed 31 mph    
Visibility 9 miles    
Events Snow    
Averages and records for this station are not official NWS values.
T = Trace of Precipitation, MM = Missing Value Source: NWS Daily Summary

Daily Weather History Graph

Daily Weather History Graph

Search for Another Location

Airport:

Trip Planner

Search our weather history database for the weather conditions in past years. The results will help you decide how hot, cold, wet, or windy it might be!

Date:

Astronomy

Jan. 20, 2013 Rise Set
Actual Time 7:46 AM CST 5:12 PM CST
Civil Twilight 7:14 AM CST 5:44 PM CST
Nautical Twilight 6:39 AM CST 6:19 PM CST
Astronomical Twilight 6:05 AM CST 6:54 PM CST
Moon 12:15 PM CST (1/20) 2:18 AM CST (1/20)
Length of Visible Light 10h 29m
Length of Day
9h 26m
Waxing Gibbous, 66% of the Moon is Illuminated
Jan 20
Waxing Gibbous
Jan 26
Full
Feb 3
Last Quarter
Feb 10
New
Feb 17
First Quarter

Hourly Weather History & Observations

Time (CST) Temp. Windchill Dew Point Humidity Pressure Visibility Wind Dir Wind Speed Gust Speed Precip Events Conditions
12:15 AM 6.8 °F -14.7 °F -4.0 °F 61% 30.28 in 10.0 mi WNW 24.2 mph 31.1 mph N/A   Clear
12:35 AM 6.8 °F -12.4 °F -4.0 °F 61% 30.28 in 10.0 mi WNW 18.4 mph 26.5 mph N/A   Clear
12:55 AM 6.8 °F -13.4 °F -5.8 °F 56% 30.30 in 10.0 mi WNW 20.7 mph 26.5 mph N/A   Clear
2:35 AM 5.0 °F -14.7 °F -5.8 °F 61% 30.34 in 10.0 mi WNW 18.4 mph 25.3 mph N/A   Clear
2:55 AM 5.0 °F -14.2 °F -5.8 °F 61% 30.35 in 10.0 mi WNW 17.3 mph 23.0 mph N/A   Clear
3:15 AM 5.0 °F -13.0 °F -5.8 °F 61% 30.35 in 10.0 mi WNW 15.0 mph - N/A   Clear
3:35 AM 5.0 °F -11.6 °F -5.8 °F 61% 30.35 in 10.0 mi WNW 12.7 mph - N/A   Clear
3:55 AM 3.2 °F -15.3 °F -5.8 °F 66% 30.34 in 10.0 mi WNW 15.0 mph - N/A   Clear
4:15 AM 3.2 °F -13.9 °F -5.8 °F 66% 30.34 in 10.0 mi NW 12.7 mph - N/A   Clear
4:35 AM 3.2 °F -13.9 °F -5.8 °F 66% 30.33 in 10.0 mi NW 12.7 mph - N/A   Clear
4:55 AM 3.2 °F -14.6 °F -7.6 °F 61% 30.32 in 10.0 mi NW 13.8 mph - N/A   Clear
5:15 AM 3.2 °F -13.9 °F -7.6 °F 61% 30.33 in 10.0 mi NW 12.7 mph - N/A   Clear
5:35 AM 3.2 °F -13.9 °F -7.6 °F 61% 30.34 in 10.0 mi WNW 12.7 mph - N/A   Clear
6:15 AM 3.2 °F -13.9 °F -5.8 °F 66% 30.34 in 10.0 mi WNW 12.7 mph - N/A   Scattered Clouds
6:35 AM 5.0 °F -11.6 °F -5.8 °F 61% 30.33 in 10.0 mi NW 12.7 mph - N/A   Scattered Clouds
7:14 AM 5.0 °F -9.1 °F -5.8 °F 61% 30.35 in 10.0 mi WNW 9.2 mph - N/A   Mostly Cloudy
7:35 AM 5.0 °F -10.0 °F -5.8 °F 61% 30.35 in 10.0 mi West 10.4 mph - N/A   Overcast
7:55 AM 6.8 °F -7.8 °F -5.8 °F 56% 30.34 in 10.0 mi West 10.4 mph - N/A   Mostly Cloudy
8:15 AM 6.8 °F -8.6 °F -5.8 °F 56% 30.36 in 10.0 mi West 11.5 mph - N/A   Scattered Clouds
8:35 AM 6.8 °F -10.0 °F -5.8 °F 56% 30.38 in 10.0 mi WNW 13.8 mph 17.3 mph N/A   Mostly Cloudy
9:34 AM 6.8 °F -8.6 °F -2.2 °F 67% 30.40 in 3.0 mi WNW 11.5 mph - N/A Snow Light Snow
9:55 AM 8.6 °F -6.3 °F -0.4 °F 67% 30.40 in 2.5 mi WNW 11.5 mph - N/A Snow Light Snow
10:14 AM 8.6 °F -7.0 °F -0.4 °F 67% 30.40 in 2.5 mi West 12.7 mph - N/A Snow Light Snow
10:35 AM 8.6 °F -7.0 °F -2.2 °F 62% 30.41 in 5.0 mi WNW 12.7 mph - N/A   Haze
10:55 AM 8.6 °F -7.0 °F -0.4 °F 67% 30.41 in 4.0 mi WNW 12.7 mph - N/A Snow Light Snow
11:15 AM 8.6 °F -8.9 °F -0.4 °F 67% 30.41 in 5.0 mi WNW 16.1 mph - N/A   Haze
11:34 AM 10.4 °F -4.8 °F -0.4 °F 62% 30.41 in 5.0 mi WNW 12.7 mph - N/A   Haze
11:55 AM 10.4 °F -6.0 °F -0.4 °F 62% 30.41 in 5.0 mi WNW 15.0 mph 19.6 mph N/A   Haze
12:15 PM 10.4 °F -5.4 °F -2.2 °F 57% 30.39 in 10.0 mi West 13.8 mph 18.4 mph N/A   Overcast
12:35 PM 10.4 °F -4.8 °F -0.4 °F 62% 30.38 in 10.0 mi WNW 12.7 mph 19.6 mph N/A   Scattered Clouds
12:55 PM 10.4 °F -5.4 °F -0.4 °F 62% 30.37 in 10.0 mi West 13.8 mph - N/A   Mostly Cloudy
1:15 PM 12.2 °F -2.5 °F -0.4 °F 57% 30.36 in 10.0 mi WNW 12.7 mph 17.3 mph N/A   Overcast
1:35 PM 12.2 °F -3.1 °F -0.4 °F 57% 30.36 in 10.0 mi WNW 13.8 mph - N/A   Mostly Cloudy
1:55 PM 12.2 °F -3.1 °F -0.4 °F 57% 30.35 in 10.0 mi WNW 13.8 mph - N/A   Scattered Clouds
2:35 PM 12.2 °F -3.1 °F -0.4 °F 57% 30.34 in 10.0 mi WNW 13.8 mph - N/A   Scattered Clouds
2:55 PM 12.2 °F -2.5 °F -0.4 °F 57% 30.34 in 10.0 mi West 12.7 mph - N/A   Scattered Clouds
3:15 PM 12.2 °F -4.3 °F -0.4 °F 57% 30.34 in 10.0 mi WNW 16.1 mph - N/A   Scattered Clouds
4:15 PM 14.0 °F 1.2 °F 1.4 °F 57% 30.32 in 10.0 mi West 10.4 mph - N/A   Overcast
4:35 PM 14.0 °F -2.0 °F 1.4 °F 57% 30.32 in 10.0 mi West 16.1 mph 20.7 mph N/A   Overcast
4:55 PM 12.2 °F -3.1 °F 1.4 °F 62% 30.32 in 10.0 mi WNW 13.8 mph 19.6 mph N/A   Overcast
5:15 PM 12.2 °F -4.8 °F 1.4 °F 62% 30.32 in 10.0 mi WNW 17.3 mph 20.7 mph N/A   Overcast
5:35 PM 12.2 °F -4.3 °F 1.4 °F 62% 30.32 in 7.0 mi WNW 16.1 mph - N/A   Overcast
5:55 PM 12.2 °F -2.5 °F 1.4 °F 62% 30.32 in 10.0 mi West 12.7 mph - N/A   Mostly Cloudy
6:15 PM 12.2 °F -1.8 °F 3.2 °F 67% 30.31 in 2.5 mi WNW 11.5 mph - N/A Snow Light Snow
6:35 PM 10.4 °F -7.7 °F 3.2 °F 73% 30.31 in 3.0 mi WNW 18.4 mph 24.2 mph N/A Snow Light Snow
6:54 PM 10.4 °F -8.6 °F -0.4 °F 62% 30.32 in 10.0 mi WNW 20.7 mph 27.6 mph N/A   Scattered Clouds
7:15 PM 8.6 °F -10.0 °F -2.2 °F 62% 30.32 in 10.0 mi WNW 18.4 mph 24.2 mph N/A   Scattered Clouds
7:35 PM 8.6 °F -10.0 °F -2.2 °F 62% 30.32 in 10.0 mi WNW 18.4 mph 25.3 mph N/A   Clear
7:55 PM 8.6 °F -7.7 °F -4.0 °F 57% 30.32 in 10.0 mi WNW 13.8 mph - N/A   Clear
8:15 PM 6.8 °F -10.0 °F -4.0 °F 61% 30.31 in 10.0 mi WNW 13.8 mph - N/A   Clear
8:35 PM 6.8 °F -8.6 °F -4.0 °F 61% 30.31 in 10.0 mi West 11.5 mph - N/A   Clear
8:53 PM 6.8 °F -6.9 °F -2.2 °F 67% 30.31 in 10.0 mi WNW 9.2 mph - N/A   Mostly Cloudy
9:15 PM 6.8 °F -11.8 °F -2.2 °F 67% 30.30 in 10.0 mi WNW 17.3 mph 28.8 mph N/A   Mostly Cloudy
9:35 PM 6.8 °F -12.4 °F -2.2 °F 67% 30.31 in 7.0 mi WNW 18.4 mph 21.9 mph N/A   Overcast
9:55 PM 6.8 °F -11.8 °F -2.2 °F 67% 30.31 in 4.0 mi NW 17.3 mph - N/A   Haze
10:15 PM 5.0 °F -16.2 °F -7.6 °F 56% 30.32 in 10.0 mi WNW 21.9 mph 31.1 mph N/A   Mostly Cloudy
10:34 PM 3.2 °F -17.6 °F -9.4 °F 56% 30.33 in 10.0 mi WNW 19.6 mph - N/A   Scattered Clouds
10:55 PM 3.2 °F -18.1 °F -9.4 °F 56% 30.33 in 10.0 mi WNW 20.7 mph - N/A   Clear
11:15 PM 3.2 °F -15.9 °F -9.4 °F 56% 30.33 in 10.0 mi NW 16.1 mph 23.0 mph N/A   Scattered Clouds
11:35 PM 1.4 °F -18.8 °F -9.4 °F 61% 30.33 in 10.0 mi NW 17.3 mph - N/A   Scattered Clouds